Olive Branch, MS

2:58 AM CDT on May 27, 2017 (GMT -0500)
Olive Branch

Weather History for KOLV - March, 2013

Change the Weather History Date:

Saturday, March 2, 2013

  Actual Average (KMEM) Record (KMEM)
Temperature  
Mean Temperature 31 °F -  
Max Temperature 32 °F 61 °F 83 °F (2012)
Min Temperature 30 °F 42 °F 17 °F (1943)
Degree Days  
Heating Degree Days 34    
Moisture  
Dew Point 29 °F    
Average Humidity 89    
Maximum Humidity 100    
Minimum Humidity 69    
Precipitation  
Precipitation 0.00 in - - ()
Sea Level Pressure  
Sea Level Pressure 30.20 in    
Wind  
Wind Speed 9 mph (NNW)    
Max Wind Speed 15 mph    
Max Gust Speed 16 mph    
Visibility 7 miles    
Events Snow    
Averages and records for this station are not official NWS values.
T = Trace of Precipitation, MM = Missing Value Source: NWS Daily Summary

Daily Weather History Graph

Daily Weather History Graph

Search for Another Location

Airport or City:

Trip Planner

Search our weather history database for the weather conditions in past years. The results will help you decide how hot, cold, wet, or windy it might be!

Date:

Astronomy

Mar. 02, 2013 Rise Set
Actual Time 6:26 AM CST 5:55 PM CST
Civil Twilight 6:01 AM CST 6:21 PM CST
Nautical Twilight 5:32 AM CST 6:50 PM CST
Astronomical Twilight 5:02 AM CST 7:20 PM CST
Moon 11:20 PM CST (3/2) 9:08 AM CST (3/2)
Length of Visible Light 12h 19m
Length of Day
11h 29m
Waning Gibbous, 74% of the Moon is Illuminated
Mar 2
Waning Gibbous
Mar 4
Last Quarter
Mar 11
New
Mar 19
First Quarter
Mar 27
Full

Hourly Weather History & Observations

Time (CST) Temp. Windchill Dew Point Humidity Pressure Visibility Wind Dir Wind Speed Gust Speed Precip Events Conditions
12:15 AM 32.0 °F 24.2 °F 32.0 °F 100% 30.16 in 5.0 mi NW 9.2 mph - 0.00 in   Overcast
12:35 AM 32.0 °F 24.2 °F 32.0 °F 100% 30.16 in 4.0 mi NW 9.2 mph - N/A   Overcast
12:55 AM 32.0 °F 24.8 °F 32.0 °F 100% 30.16 in 3.0 mi NW 8.1 mph - N/A   Overcast
1:15 AM 32.0 °F 24.8 °F 32.0 °F 100% 30.16 in 5.0 mi NW 8.1 mph - 0.00 in   Overcast
1:35 AM 32.0 °F 23.6 °F 32.0 °F 100% 30.16 in 8.0 mi NW 10.4 mph - 0.00 in   Overcast
1:55 AM 32.0 °F 24.8 °F 32.0 °F 100% 30.16 in 8.0 mi NW 8.1 mph - 0.00 in   Overcast
2:15 AM 32.0 °F 24.8 °F 32.0 °F 100% 30.15 in 5.0 mi NW 8.1 mph - 0.00 in   Overcast
2:35 AM 32.0 °F 25.6 °F 32.0 °F 100% 30.15 in 5.0 mi NW 6.9 mph - 0.00 in   Overcast
2:55 AM 32.0 °F 24.8 °F 32.0 °F 100% 30.14 in 4.0 mi NW 8.1 mph - 0.00 in   Overcast
3:15 AM 32.0 °F 24.2 °F 32.0 °F 100% 30.14 in 7.0 mi NW 9.2 mph - 0.00 in   Overcast
3:35 AM 32.0 °F 23.6 °F 32.0 °F 100% 30.14 in 6.0 mi NNW 10.4 mph - 0.00 in   Overcast
4:15 AM 32.0 °F 24.2 °F 32.0 °F 100% 30.14 in 5.0 mi NW 9.2 mph - 0.00 in   Overcast
4:35 AM 32.0 °F 24.2 °F 32.0 °F 100% 30.14 in 5.0 mi NNW 9.2 mph - 0.00 in   Overcast
4:55 AM 32.0 °F 23.0 °F 32.0 °F 100% 30.15 in 5.0 mi North 11.5 mph - 0.00 in   Overcast
5:15 AM - - - N/A% 30.15 in 10.0 mi NNW 11.5 mph - 0.00 in   Overcast
5:35 AM 32.0 °F 24.8 °F 32.0 °F 100% 30.16 in 10.0 mi North 8.1 mph - 0.00 in   Overcast
5:55 AM 32.0 °F 24.8 °F 32.0 °F 100% 30.16 in 8.0 mi North 8.1 mph - 0.00 in   Overcast
6:50 AM 32.0 °F 24.2 °F 32.0 °F 100% 30.17 in 9.0 mi NNW 9.2 mph - N/A   Overcast
7:25 AM 32.0 °F 24.8 °F 32.0 °F 100% 30.19 in 4.0 mi NNW 8.1 mph - N/A Snow Light Snow
7:50 AM 30.2 °F 21.3 °F 30.2 °F 100% 30.20 in 7.0 mi NNW 10.4 mph - N/A   Overcast
8:50 AM 32.0 °F 23.6 °F 30.2 °F 93% 30.22 in 7.0 mi NW 10.4 mph - N/A   Overcast
9:21 AM 32.0 °F 24.8 °F 30.2 °F 93% 30.22 in 5.0 mi NNW 8.1 mph - N/A Snow Light Snow
9:50 AM 32.0 °F 23.0 °F 32.0 °F 100% 30.23 in 2.0 mi NNW 11.5 mph - N/A Snow Light Snow
10:50 AM 32.0 °F 23.6 °F 32.0 °F 100% 30.23 in 2.5 mi NW 10.4 mph 16.1 mph N/A Snow Light Snow
1:15 PM 32.0 °F 22.1 °F 26.6 °F 80% 30.20 in 8.0 mi NNW 13.8 mph - N/A Snow Light Snow
1:50 PM 32.0 °F 24.2 °F 24.8 °F 75% 30.20 in 8.0 mi NNW 9.2 mph - N/A Snow Light Snow
2:45 PM 32.0 °F 21.6 °F 24.8 °F 75% 30.20 in 8.0 mi NNW 15.0 mph - N/A Snow Light Snow
4:50 PM 32.0 °F 23.6 °F 26.6 °F 80% 30.22 in 8.0 mi North 10.4 mph - N/A Snow Light Snow
5:50 PM 32.0 °F 23.0 °F 26.6 °F 80% 30.23 in 10.0 mi North 11.5 mph - N/A   Overcast
6:50 PM 32.0 °F 26.4 °F 26.6 °F 80% 30.24 in 10.0 mi NNW 5.8 mph - N/A   Overcast
7:50 PM 32.0 °F 24.2 °F 24.8 °F 75% 30.25 in 10.0 mi North 9.2 mph - N/A   Mostly Cloudy
8:15 PM 32.0 °F 23.6 °F 24.8 °F 75% 30.25 in 10.0 mi North 10.4 mph - 0.00 in   Mostly Cloudy
8:35 PM 32.0 °F 24.8 °F 26.6 °F 80% 30.25 in 9.0 mi NNW 8.1 mph - 0.00 in   Overcast
8:55 PM 32.0 °F 26.4 °F 23.0 °F 69% 30.25 in 9.0 mi North 5.8 mph - 0.00 in   Overcast
9:15 PM 32.0 °F 25.6 °F 23.0 °F 69% 30.25 in 10.0 mi NNW 6.9 mph - 0.00 in   Overcast
9:35 PM 32.0 °F 26.4 °F 23.0 °F 69% 30.26 in 10.0 mi North 5.8 mph - 0.00 in   Overcast
9:55 PM 30.2 °F 25.4 °F 23.0 °F 75% 30.25 in 10.0 mi NNW 4.6 mph - 0.00 in   Overcast
10:15 PM 30.2 °F 25.4 °F 23.0 °F 75% 30.25 in 8.0 mi NNW 4.6 mph - 0.00 in   Overcast
10:35 PM 30.2 °F 26.7 °F 23.0 °F 75% 30.25 in 10.0 mi NNW 3.5 mph - 0.00 in   Overcast
10:55 PM 30.2 °F - 23.0 °F 75% 30.25 in 10.0 mi Calm Calm - 0.00 in   Overcast
11:15 PM 30.2 °F - 24.8 °F 80% 30.25 in 10.0 mi Calm Calm - 0.00 in   Overcast
11:35 PM 30.2 °F - 24.8 °F 80% 30.25 in 10.0 mi Calm Calm - 0.00 in   Overcast
11:55 PM 30.2 °F - 24.8 °F 80% 30.24 in 10.0 mi Calm Calm - 0.00 in   Overcast